QPF
0.00 0.00 0.00 0.00 0.00 0.01 0.04 0.16 0.22 0.09 0.07 0.06 0.06 0.05 0.02 0.02 0.02 0.01 0.01 0.00 0.00 0.00 0.00 0.01 0.01 0.00 0.00 0.03 0.04 0.02 0.02 0.04 0.04 0.03 0.02 0.01 0.01 0.01 0.00 0.01 0.02 0.02 0.01
0.00 0.00 0.00 0.00 0.02 0.05 0.16 0.10 0.02 0.01 0.01 0.01 0.02 0.02 0.01 0.01 0.01 0.00 0.00 0.00 0.00 0.00 0.00 0.00 0.00 0.00 0.00 0.00 0.00 0.00 0.00 0.00 0.00 0.00 0.00 0.00 0.00 0.00 0.00 0.00 0.01 0.03 0.04
0.00 0.00 0.00 0.00 0.00 0.00 0.02 0.00 0.00 0.00 0.00 0.00 0.00 0.00 0.00 0.00 0.00 0.00 0.00 0.00 0.00 0.00 0.00 0.00 0.00 0.00 0.00 0.00 0.00 0.00 0.00 0.00 0.00 0.00 0.00 0.00 0.00 0.00 0.00 0.00 0.00 0.00 0.00
0.00 0.00 0.00 0.00 0.00 0.00 0.00 0.00 0.00 0.00 0.00 0.00 0.00 0.00 0.00 0.00 0.00 0.00 0.00 0.00 0.00 0.00 0.00 0.00 0.00 0.00 0.00 0.00 0.00 0.00 0.00 0.00 0.00 0.00 0.00 0.01 0.01 0.01 0.00 0.00 0.00 0.00 0.00
0.00 0.00 0.00 0.00 0.00 0.00 0.00 0.00 0.00 0.00 0.00 0.00 0.00 0.00 0.00 0.00 0.00 0.00 0.00 0.00 0.00 0.00 0.00 0.00 0.00 0.00 0.00 0.00 0.00 0.00 0.00 0.00 0.00 0.00 0.00 0.01 0.01 0.00 0.00 0.00 0.00 0.00 0.00
0.00 0.00 0.00 0.00 0.00 0.00 0.00 0.00 0.00 0.00 0.00 0.00 0.00 0.00 0.00 0.00 0.00 0.00 0.00 0.00 0.00 0.00 0.00 0.00 0.00 0.00 0.00 0.00 0.00 0.00 0.00 0.00 0.01 0.01 0.00 0.00 0.00 0.00 0.00 0.00 0.00 0.00 0.00
0.00 0.00 0.00 0.00 0.00 0.00 0.00 0.00 0.00 0.00 0.00 0.00 0.00 0.00 0.00 0.00 0.00 0.00 0.00 0.00 0.00 0.00 0.00 0.00 0.00 0.00 0.00 0.00 0.00 0.00 0.00 0.00 0.00 0.01 0.00 0.00 0.00 0.00 0.00 0.00 0.00 0.00 0.00
0.00 0.00 0.00 0.00 0.00 0.00 0.00 0.00 0.00 0.00 0.00 0.00 0.00 0.00 0.00 0.00 0.00 0.00 0.00 0.00 0.00 0.00 0.00 0.00 0.00 0.00 0.00 0.00 0.00 0.00 0.00 0.00 0.00 0.01 0.01 0.01 0.02 0.01 0.00 0.00 0.00 0.00 0.01
0.00 0.00 0.00 0.00 0.00 0.00 0.00 0.00 0.00 0.00 0.00 0.00 0.00 0.00 0.00 0.00 0.00 0.00 0.00 0.00 0.00 0.00 0.00 0.00 0.00 0.00 0.00 0.00 0.00 0.00 0.00 0.00 0.00 0.00 0.00 0.01 0.02 0.02 0.02 0.00 0.00 0.00 0.00
0.00 0.00 0.00 0.00 0.00 0.00 0.00 0.00 0.00 0.00 0.00 0.00 0.00 0.00 0.00 0.00 0.00 0.00 0.00 0.00 0.00 0.00 0.00 0.00 0.00 0.00 0.00 0.00 0.00 0.00 0.00 0.00 0.00 0.00 0.00 0.00 0.00 0.01 0.01 0.01 0.00 0.00 0.01
0.00 0.00 0.00 0.00 0.00 0.00 0.00 0.00 0.00 0.00 0.00 0.00 0.00 0.00 0.00 0.00 0.00 0.00 0.00 0.00 0.00 0.00 0.00 0.00 0.00 0.00 0.00 0.00 0.00 0.00 0.00 0.00 0.00 0.00 0.00 0.00 0.00 0.00 0.01 0.02 0.01 0.00 0.00
0.00 0.00 0.00 0.00 0.00 0.00 0.00 0.00 0.00 0.00 0.00 0.00 0.00 0.00 0.00 0.00 0.00 0.00 0.00 0.00 0.00 0.00 0.00 0.00 0.00 0.00 0.00 0.00 0.00 0.00 0.00 0.00 0.00 0.00 0.00 0.00 0.00 0.00 0.00 0.00 0.01 0.00 0.01
0.00 0.00 0.00 0.00 0.00 0.00 0.00 0.00 0.00 0.00 0.00 0.00 0.00 0.00 0.00 0.00 0.00 0.00 0.00 0.00 0.00 0.00 0.00 0.00 0.00 0.00 0.00 0.00 0.00 0.00 0.00 0.00 0.00 0.00 0.00 0.00 0.00 0.00 0.00 0.00 0.00 0.00 0.00
0.00 0.00 0.00 0.00 0.00 0.00 0.00 0.00 0.00 0.00 0.00 0.00 0.00 0.00 0.00 0.00 0.00 0.00 0.00 0.00 0.00 0.00 0.00 0.00 0.00 0.00 0.00 0.00 0.00 0.00 0.00 0.00 0.00 0.00 0.00 0.00 0.00 0.00 0.00 0.00 0.00 0.00 0.00
0.00 0.00 0.00 0.00 0.00 0.00 0.00 0.00 0.00 0.00 0.00 0.00 0.00 0.00 0.00 0.00 0.00 0.00 0.00 0.00 0.00 0.00 0.00 0.00 0.00 0.00 0.00 0.00 0.00 0.00 0.00 0.00 0.00 0.00 0.00 0.00 0.00 0.00 0.00 0.00 0.01 0.01 0.01
0.00 0.00 0.00 0.00 0.00 0.00 0.00 0.00 0.00 0.00 0.00 0.00 0.00 0.00 0.00 0.00 0.00 0.00 0.00 0.00 0.00 0.00 0.00 0.00 0.00 0.00 0.00 0.00 0.00 0.00 0.00 0.00 0.00 0.00 0.00 0.00 0.00 0.00 0.00 0.00 0.02 0.02 0.02
0.00 0.00 0.00 0.00 0.00 0.00 0.00 0.00 0.00 0.00 0.00 0.00 0.00 0.00 0.00 0.00 0.00 0.00 0.00 0.00 0.00 0.00 0.00 0.00 0.00 0.00 0.00 0.00 0.00 0.00 0.00 0.00 0.00 0.00 0.00 0.00 0.00 0.00 0.00 0.01 0.01 0.02 0.01
0.00 0.00 0.00 0.00 0.00 0.00 0.00 0.00 0.00 0.00 0.00 0.00 0.00 0.00 0.00 0.00 0.00 0.00 0.00 0.00 0.00 0.00 0.00 0.00 0.00 0.00 0.00 0.00 0.00 0.00 0.00 0.00 0.00 0.00 0.00 0.00 0.00 0.00 0.00 0.00 0.00 0.01 0.01
0.00 0.00 0.00 0.00 0.00 0.00 0.00 0.00 0.00 0.00 0.00 0.00 0.00 0.00 0.00 0.00 0.00 0.00 0.00 0.00 0.00 0.00 0.00 0.00 0.00 0.00 0.00 0.00 0.00 0.00 0.00 0.00 0.00 0.00 0.00 0.00 0.00 0.01 0.01 0.00 0.01 0.01 0.01
0.00 0.00 0.00 0.00 0.00 0.00 0.00 0.00 0.00 0.00 0.00 0.00 0.00 0.00 0.00 0.00 0.00 0.00 0.00 0.00 0.00 0.00 0.00 0.00 0.00 0.00 0.00 0.00 0.00 0.00 0.00 0.00 0.00 0.00 0.00 0.00 0.00 0.00 0.01 0.01 0.01 0.01 0.00
0.00 0.00 0.00 0.00 0.00 0.00 0.00 0.00 0.00 0.00 0.00 0.00 0.00 0.00 0.00 0.00 0.00 0.00 0.00 0.00 0.00 0.00 0.00 0.00 0.00 0.00 0.00 0.00 0.00 0.00 0.00 0.00 0.00 0.00 0.00 0.00 0.00 0.00 0.00 0.01 0.01 0.00 0.00
0.00 0.00 0.00 0.00 0.00 0.00 0.00 0.00 0.00 0.00 0.00 0.00 0.00 0.00 0.00 0.00 0.00 0.00 0.00 0.00 0.00 0.00 0.00 0.00 0.00 0.00 0.00 0.00 0.00 0.00 0.00 0.00 0.00 0.00 0.00 0.00 0.00 0.00 0.00 0.00 0.01 0.01 0.00
0.00 0.00 0.00 0.00 0.00 0.00 0.00 0.00 0.00 0.00 0.00 0.00 0.00 0.00 0.00 0.00 0.00 0.00 0.00 0.00 0.00 0.00 0.00 0.00 0.00 0.00 0.00 0.00 0.00 0.00 0.00 0.00 0.00 0.00 0.00 0.00 0.00 0.00 0.00 0.00 0.01 0.01 0.01
0.00 0.00 0.01 0.00 0.00 0.00 0.00 0.00 0.00 0.00 0.00 0.00 0.00 0.00 0.00 0.00 0.00 0.00 0.00 0.00 0.00 0.00 0.00 0.00 0.00 0.00 0.00 0.00 0.00 0.00 0.00 0.00 0.00 0.00 0.00 0.00 0.00 0.00 0.00 0.00 0.00 0.00 0.00
0.00 0.00 0.00 0.00 0.00 0.00 0.00 0.00 0.00 0.00 0.00 0.00 0.00 0.00 0.00 0.00 0.00 0.00 0.00 0.00 0.00 0.00 0.00 0.00 0.00 0.00 0.00 0.00 0.00 0.00 0.00 0.00 0.00 0.00 0.00 0.00 0.00 0.00 0.00 0.00 0.00 0.00 0.00
0.00 0.00 0.00 0.00 0.00 0.00 0.00 0.00 0.00 0.00 0.00 0.00 0.00 0.00 0.00 0.00 0.00 0.00 0.00 0.00 0.00 0.00 0.00 0.00 0.00 0.00 0.00 0.00 0.00 0.00 0.00 0.00 0.00 0.00 0.00 0.00 0.00 0.00 0.00 0.00 0.00 0.00 0.00
MSLP
1013.96 1013.72 1013.82 1014.04 1014.43 1014.70 1015.08 1015.44 1015.82 1015.73 1016.49 1016.37 1016.20 1016.12 1015.94 1015.96 1016.01 1016.12 1016.27 1016.22 1016.15 1016.13 1016.02 1015.97 1015.75 1015.56 1015.37 1015.05 1014.88 1014.61 1014.39 1014.29 1013.87 1013.63 1013.59 1013.23 1013.21 1012.83 1013.02 1013.02 1012.78 1012.97 1012.36
1013.79 1013.76 1014.01 1014.20 1014.84 1015.37 1015.42 1015.67 1015.81 1016.36 1016.38 1016.04 1016.11 1016.29 1016.40 1016.33 1016.31 1016.35 1016.40 1016.44 1016.30 1016.30 1016.03 1015.70 1015.58 1015.13 1015.05 1014.80 1014.64 1014.44 1014.23 1014.02 1014.04 1013.77 1013.48 1013.29 1013.13 1012.85 1013.05 1012.79 1012.07 1012.11 1012.16
1013.88 1014.06 1014.38 1014.64 1015.03 1015.48 1015.64 1015.74 1016.01 1016.19 1016.28 1016.32 1016.36 1016.43 1016.40 1016.41 1016.57 1016.56 1016.51 1016.45 1016.32 1016.17 1016.03 1015.66 1015.34 1014.99 1014.95 1014.62 1014.41 1014.29 1013.97 1013.63 1013.64 1013.49 1013.18 1012.94 1012.70 1012.58 1012.60 1012.34 1012.05 1011.80 1012.11
1013.95 1013.98 1014.19 1014.60 1014.91 1015.29 1015.58 1015.83 1016.00 1016.10 1016.10 1016.38 1016.51 1016.49 1016.43 1016.56 1016.66 1016.65 1016.49 1016.37 1016.11 1015.77 1015.43 1015.25 1015.06 1014.93 1014.80 1014.48 1014.19 1013.90 1013.62 1013.47 1013.40 1013.33 1013.09 1012.74 1012.61 1012.27 1012.13 1012.20 1011.87 1011.71 1011.69
1013.99 1014.10 1014.34 1014.66 1014.90 1015.41 1015.83 1015.97 1016.04 1016.23 1016.23 1016.24 1016.54 1016.61 1016.48 1016.52 1016.49 1016.27 1016.10 1016.02 1015.79 1015.57 1015.19 1014.93 1014.65 1014.36 1014.07 1013.79 1013.67 1013.35 1013.27 1013.16 1012.97 1012.93 1012.82 1012.55 1012.28 1012.19 1012.02 1011.65 1011.44 1011.43 1011.62
1013.99 1014.51 1014.63 1014.69 1015.08 1015.65 1015.99 1016.11 1016.23 1016.33 1016.35 1016.36 1016.46 1016.07 1016.13 1016.15 1016.07 1015.95 1015.88 1015.96 1015.61 1015.53 1015.41 1014.81 1014.42 1014.07 1013.69 1013.39 1013.05 1012.98 1012.77 1012.65 1012.46 1012.42 1012.18 1012.17 1011.83 1011.55 1011.34 1011.42 1011.40 1011.61 1011.50
1014.13 1014.41 1014.74 1015.13 1015.64 1015.96 1015.89 1016.30 1016.26 1015.98 1016.09 1016.26 1016.20 1016.16 1016.37 1016.29 1015.98 1015.83 1015.69 1015.70 1015.48 1015.32 1015.13 1014.83 1014.49 1013.94 1013.63 1013.41 1012.96 1012.61 1012.20 1012.03 1011.89 1011.88 1011.88 1011.55 1011.34 1010.97 1011.05 1011.17 1011.31 1011.30 1011.12
1014.56 1014.87 1015.16 1015.51 1016.01 1016.14 1016.14 1015.98 1016.00 1016.19 1016.34 1016.55 1016.48 1016.37 1016.28 1016.09 1015.75 1015.58 1015.41 1015.33 1015.19 1014.68 1014.48 1014.37 1014.13 1013.73 1013.25 1013.05 1012.96 1012.73 1012.31 1011.89 1011.44 1011.24 1011.27 1010.96 1010.82 1010.60 1010.50 1010.43 1010.69 1010.86 1010.87
1015.16 1015.34 1015.38 1015.40 1015.85 1016.31 1016.50 1016.46 1016.45 1016.63 1016.63 1016.49 1016.45 1016.35 1016.35 1016.20 1015.75 1015.43 1015.48 1015.25 1014.99 1014.55 1014.32 1014.01 1013.83 1013.68 1013.24 1013.05 1012.95 1012.61 1012.22 1011.62 1010.87 1010.67 1010.54 1010.28 1010.17 1010.16 1010.30 1010.47 1010.59 1010.79 1010.68
1015.22 1015.42 1015.47 1015.78 1016.03 1016.37 1016.53 1016.48 1016.27 1016.29 1016.34 1016.38 1016.23 1016.13 1016.19 1016.32 1015.91 1015.77 1015.55 1015.21 1015.19 1014.83 1014.38 1014.09 1013.80 1013.42 1012.96 1012.85 1012.90 1012.53 1012.18 1011.37 1010.96 1010.35 1010.06 1009.82 1009.74 1009.69 1009.79 1009.88 1009.80 1010.14 1010.33
1015.28 1015.37 1015.63 1015.76 1016.04 1016.19 1016.16 1016.09 1016.11 1016.27 1016.33 1016.27 1016.16 1016.18 1016.19 1016.18 1016.08 1015.77 1015.39 1015.47 1015.48 1015.21 1014.91 1014.46 1013.71 1013.17 1012.97 1012.61 1012.32 1012.07 1011.38 1010.67 1010.34 1010.19 1009.89 1009.56 1009.27 1009.29 1009.26 1009.26 1009.33 1009.43 1009.57
1015.42 1015.57 1015.83 1016.11 1016.02 1016.02 1016.24 1016.40 1016.34 1016.40 1016.58 1016.57 1016.64 1016.50 1016.07 1016.06 1015.98 1015.77 1015.55 1015.59 1015.43 1015.38 1014.92 1014.40 1014.02 1013.32 1012.73 1012.02 1011.53 1010.97 1010.53 1010.22 1009.94 1009.72 1009.46 1009.00 1008.78 1008.67 1008.71 1008.67 1008.60 1008.63 1008.73
1015.69 1015.92 1016.10 1016.06 1016.02 1016.09 1016.43 1016.60 1016.61 1016.60 1016.72 1016.78 1016.87 1016.74 1016.40 1016.08 1015.98 1016.01 1015.66 1015.26 1015.15 1015.07 1014.89 1014.60 1013.85 1012.98 1012.35 1011.69 1010.96 1010.33 1009.82 1009.58 1009.40 1009.16 1008.73 1008.44 1008.12 1007.94 1008.04 1008.15 1008.08 1008.15 1008.35
1015.93 1016.18 1016.41 1016.46 1016.61 1016.50 1016.77 1016.80 1016.78 1016.63 1016.74 1016.84 1016.90 1016.85 1016.73 1016.48 1016.17 1015.96 1015.66 1015.41 1015.21 1014.90 1014.59 1014.09 1013.41 1012.84 1012.26 1011.60 1010.96 1010.27 1009.79 1009.45 1009.07 1008.85 1008.42 1007.96 1007.63 1007.55 1007.57 1007.62 1007.64 1007.75 1007.97
1016.17 1016.50 1016.71 1016.77 1016.66 1016.84 1016.95 1016.87 1016.81 1016.76 1016.83 1016.88 1017.10 1017.23 1017.05 1016.67 1016.43 1016.35 1015.99 1015.63 1015.34 1015.02 1014.83 1014.02 1013.31 1012.73 1012.32 1011.66 1010.94 1010.55 1010.08 1009.60 1009.22 1008.79 1008.32 1007.74 1007.30 1007.10 1006.99 1006.94 1007.05 1007.21 1007.48
1016.60 1016.80 1016.87 1016.86 1016.81 1016.97 1017.07 1017.17 1017.06 1017.01 1016.88 1016.99 1017.14 1017.17 1016.86 1016.65 1016.24 1015.84 1015.48 1015.26 1014.95 1014.90 1014.76 1014.44 1013.86 1013.22 1012.68 1012.07 1011.37 1010.75 1010.26 1009.83 1009.33 1008.85 1008.23 1007.63 1007.15 1006.82 1006.50 1006.47 1006.61 1006.91 1007.15
1016.64 1016.91 1016.96 1016.85 1017.01 1017.08 1017.25 1017.45 1017.57 1017.19 1017.15 1017.18 1017.11 1016.96 1016.75 1016.46 1015.95 1015.67 1015.34 1015.15 1014.97 1014.65 1014.90 1014.67 1014.34 1013.76 1013.07 1012.40 1011.76 1011.16 1010.59 1009.92 1009.28 1008.86 1008.40 1007.74 1007.07 1006.59 1006.52 1006.24 1006.08 1006.56 1006.69
1016.63 1016.71 1016.76 1016.93 1017.27 1017.33 1017.51 1017.68 1017.77 1017.87 1017.72 1017.47 1017.10 1017.01 1016.57 1016.22 1015.81 1015.59 1015.43 1015.27 1015.40 1015.21 1015.29 1015.09 1014.69 1014.15 1013.57 1012.93 1012.22 1011.67 1010.96 1010.26 1009.65 1009.14 1008.54 1008.04 1007.29 1006.81 1006.55 1006.03 1005.52 1006.23 1006.89
1016.83 1016.73 1016.82 1017.03 1017.32 1017.53 1017.77 1017.91 1018.00 1017.98 1017.93 1017.86 1017.58 1017.07 1016.70 1016.27 1016.05 1016.03 1015.98 1016.17 1016.18 1015.93 1015.66 1015.33 1014.98 1014.52 1014.01 1013.46 1012.82 1012.06 1011.61 1011.06 1010.42 1009.75 1009.12 1008.58 1008.01 1007.32 1006.96 1006.54 1006.33 1006.66 1007.21
1016.79 1016.75 1016.69 1017.15 1017.33 1017.75 1018.02 1018.16 1018.22 1018.25 1018.14 1017.96 1017.76 1017.62 1017.26 1016.77 1016.66 1016.70 1016.68 1016.54 1016.47 1016.31 1016.07 1015.80 1015.36 1014.95 1014.52 1013.97 1013.40 1012.79 1012.14 1011.53 1010.96 1010.38 1009.82 1009.23 1008.70 1008.34 1007.97 1007.96 1007.86 1008.16 1008.55
1016.76 1016.57 1016.75 1017.26 1017.40 1017.81 1018.00 1018.14 1018.28 1018.37 1018.28 1018.07 1017.88 1017.54 1017.33 1017.32 1017.10 1016.97 1017.00 1016.87 1016.82 1016.67 1016.50 1016.24 1015.85 1015.51 1015.09 1014.59 1014.10 1013.57 1013.05 1012.54 1011.94 1011.30 1010.65 1010.15 1009.64 1009.35 1009.13 1009.04 1009.05 1009.10 1009.61
1016.36 1016.55 1016.91 1017.20 1017.45 1017.72 1017.93 1018.09 1018.23 1018.23 1018.09 1017.92 1017.67 1017.42 1017.14 1017.10 1016.99 1017.01 1017.06 1017.03 1016.97 1016.90 1016.82 1016.71 1016.36 1016.04 1015.68 1015.28 1014.85 1014.38 1013.83 1013.28 1012.66 1012.09 1011.49 1010.89 1010.60 1010.25 1010.03 1009.97 1010.13 1010.29 1010.54
1016.52 1016.82 1017.05 1017.28 1017.50 1017.62 1017.81 1017.88 1017.97 1017.91 1017.72 1017.61 1017.49 1017.26 1017.17 1017.11 1017.27 1017.08 1017.17 1017.21 1017.20 1017.15 1017.04 1016.92 1016.73 1016.33 1015.84 1015.45 1015.05 1014.76 1014.38 1013.92 1013.36 1012.75 1012.08 1011.61 1011.31 1011.13 1010.89 1010.81 1010.86 1011.07 1011.39
1016.89 1017.19 1017.41 1017.47 1017.67 1017.70 1017.80 1017.80 1017.82 1017.76 1017.60 1017.26 1017.13 1017.18 1017.14 1017.15 1017.32 1017.19 1017.31 1017.45 1017.54 1017.50 1017.37 1017.09 1016.87 1016.55 1016.19 1015.70 1015.04 1014.66 1014.35 1013.94 1013.34 1012.87 1012.29 1012.06 1011.84 1011.69 1011.59 1011.58 1011.57 1011.75 1011.91
1017.39 1017.40 1017.71 1017.83 1017.76 1017.79 1017.88 1017.92 1017.91 1017.86 1017.72 1017.57 1017.69 1017.72 1017.86 1017.80 1017.84 1017.75 1017.63 1017.74 1017.87 1017.92 1017.77 1017.60 1017.27 1016.85 1016.54 1016.18 1015.67 1015.12 1014.59 1013.90 1013.24 1012.96 1012.47 1012.34 1012.21 1012.13 1012.16 1012.23 1012.18 1012.28 1012.59
1018.60 1018.66 1018.66 1018.72 1018.51 1018.49 1018.34 1018.48 1018.62 1018.62 1018.50 1018.45 1018.47 1018.47 1018.61 1018.80 1018.63 1018.48 1018.22 1018.18 1018.26 1018.29 1018.19 1018.00 1017.70 1017.36 1016.94 1016.47 1016.04 1015.56 1014.87 1014.29 1013.73 1013.12 1012.61 1012.46 1012.48 1012.54 1012.48 1012.58 1012.51 1012.76 1013.06
Thickness
5717 5717 5715 5711 5704 5696 5689 5682 5674 5671 5662 5659 5655 5651 5648 5643 5639 5633 5626 5622 5617 5612 5607 5602 5598 5596 5594 5593 5592 5592 5592 5590 5591 5591 5588 5591 5590 5593 5592 5593 5595 5593 5601
5713 5713 5707 5703 5692 5682 5679 5675 5670 5661 5656 5654 5647 5638 5632 5628 5622 5616 5611 5605 5601 5594 5591 5589 5585 5585 5581 5579 5577 5578 5577 5576 5574 5573 5576 5575 5577 5579 5580 5583 5589 5588 5590
5707 5704 5698 5690 5683 5675 5670 5666 5660 5653 5646 5641 5635 5627 5622 5616 5608 5601 5596 5590 5585 5580 5575 5573 5571 5569 5565 5564 5563 5562 5562 5564 5562 5563 5564 5563 5565 5568 5570 5574 5576 5579 5579
5701 5697 5691 5684 5678 5669 5660 5654 5649 5644 5639 5630 5623 5616 5611 5602 5594 5587 5581 5575 5571 5566 5563 5559 5555 5552 5550 5549 5549 5548 5548 5548 5549 5549 5550 5552 5552 5555 5557 5559 5565 5570 5571
5692 5689 5683 5673 5665 5656 5648 5644 5640 5632 5625 5618 5610 5604 5596 5588 5582 5576 5569 5562 5556 5551 5547 5543 5541 5539 5539 5538 5536 5536 5534 5531 5532 5533 5534 5536 5538 5539 5543 5550 5556 5561 5559
5684 5674 5669 5664 5655 5646 5639 5632 5626 5620 5612 5605 5597 5595 5586 5578 5570 5563 5556 5546 5540 5533 5528 5527 5524 5523 5523 5522 5521 5519 5518 5516 5516 5516 5517 5519 5523 5528 5531 5534 5539 5540 5548
5672 5666 5657 5649 5640 5632 5627 5616 5610 5608 5600 5593 5587 5581 5572 5563 5558 5550 5541 5531 5524 5516 5509 5506 5507 5508 5507 5506 5508 5507 5506 5505 5504 5503 5504 5507 5511 5514 5518 5519 5524 5528 5535
5657 5650 5641 5631 5620 5613 5610 5607 5602 5594 5587 5579 5573 5567 5560 5553 5548 5540 5529 5518 5507 5501 5497 5498 5496 5497 5498 5497 5494 5491 5490 5490 5490 5491 5492 5495 5497 5501 5506 5509 5513 5516 5520
5636 5629 5624 5621 5612 5603 5597 5592 5587 5580 5574 5568 5562 5556 5549 5542 5537 5529 5516 5508 5493 5492 5493 5493 5491 5490 5490 5488 5484 5482 5479 5479 5480 5480 5481 5484 5486 5488 5490 5493 5498 5502 5509
5624 5617 5614 5607 5601 5592 5587 5582 5578 5571 5565 5558 5554 5547 5540 5531 5524 5515 5507 5502 5492 5488 5489 5488 5488 5487 5484 5480 5474 5472 5469 5470 5468 5470 5470 5473 5475 5478 5480 5484 5489 5492 5496
5616 5612 5605 5599 5590 5584 5579 5575 5569 5561 5555 5550 5545 5535 5528 5522 5515 5508 5503 5495 5489 5485 5484 5483 5485 5484 5480 5475 5471 5467 5466 5466 5464 5461 5459 5460 5465 5468 5473 5476 5480 5484 5486
5606 5599 5591 5581 5578 5575 5569 5561 5556 5550 5545 5538 5529 5524 5521 5515 5509 5503 5496 5489 5485 5481 5480 5480 5479 5479 5476 5474 5471 5469 5465 5461 5459 5457 5456 5458 5460 5463 5465 5469 5474 5478 5481
5591 5584 5578 5574 5570 5564 5556 5549 5544 5540 5532 5524 5518 5514 5510 5507 5501 5495 5492 5489 5485 5481 5477 5474 5475 5476 5475 5474 5471 5468 5466 5462 5459 5457 5458 5458 5458 5459 5460 5462 5467 5470 5472
5576 5570 5564 5559 5553 5550 5542 5536 5531 5526 5520 5514 5509 5504 5498 5496 5494 5490 5486 5484 5482 5478 5474 5472 5473 5471 5469 5468 5466 5465 5463 5460 5458 5457 5456 5455 5455 5455 5454 5457 5462 5465 5468
5561 5554 5549 5546 5543 5536 5528 5524 5520 5515 5510 5505 5498 5492 5488 5488 5486 5479 5478 5477 5475 5472 5468 5469 5469 5467 5463 5461 5460 5458 5457 5456 5453 5453 5453 5453 5453 5453 5454 5455 5459 5462 5464
5546 5542 5538 5534 5529 5522 5516 5512 5506 5502 5498 5493 5487 5483 5483 5481 5478 5476 5475 5473 5471 5467 5464 5462 5460 5459 5455 5451 5452 5453 5453 5452 5451 5451 5450 5450 5452 5452 5453 5455 5458 5460 5461
5536 5530 5526 5523 5516 5510 5504 5498 5493 5491 5487 5482 5479 5477 5474 5473 5474 5472 5471 5470 5466 5465 5458 5454 5451 5449 5448 5446 5445 5445 5447 5449 5450 5450 5450 5451 5453 5454 5451 5455 5460 5459 5463
5525 5523 5519 5512 5506 5498 5492 5486 5480 5475 5473 5470 5470 5468 5467 5467 5467 5465 5463 5463 5457 5454 5449 5446 5444 5442 5440 5440 5440 5439 5440 5443 5444 5445 5448 5451 5452 5454 5455 5459 5468 5465 5466
5511 5510 5506 5501 5494 5487 5480 5474 5469 5464 5461 5459 5459 5460 5460 5459 5457 5453 5451 5448 5445 5443 5440 5439 5437 5436 5434 5433 5433 5434 5433 5433 5435 5438 5442 5446 5450 5455 5457 5462 5465 5465 5464
5499 5498 5495 5489 5483 5475 5469 5464 5459 5456 5454 5453 5452 5449 5447 5448 5444 5440 5437 5437 5436 5434 5433 5431 5430 5429 5428 5427 5425 5424 5425 5427 5429 5432 5435 5440 5445 5449 5452 5454 5457 5456 5456
5489 5489 5485 5478 5472 5466 5461 5458 5454 5449 5447 5445 5443 5442 5436 5436 5434 5432 5430 5430 5429 5427 5425 5424 5423 5422 5421 5419 5417 5415 5415 5416 5417 5422 5426 5432 5437 5442 5445 5448 5450 5453 5451
5483 5481 5476 5472 5466 5463 5458 5453 5448 5444 5443 5441 5439 5437 5433 5432 5430 5427 5425 5425 5424 5423 5421 5419 5418 5417 5415 5412 5410 5409 5409 5410 5412 5414 5418 5423 5428 5433 5438 5441 5442 5444 5447
5477 5473 5471 5467 5463 5462 5456 5451 5448 5443 5442 5440 5436 5435 5432 5429 5425 5424 5422 5422 5421 5420 5419 5417 5416 5415 5414 5411 5410 5408 5407 5407 5408 5410 5414 5416 5419 5422 5428 5433 5437 5439 5439
5473 5470 5467 5465 5462 5459 5453 5449 5447 5443 5441 5441 5437 5432 5428 5426 5423 5423 5421 5420 5419 5418 5417 5417 5416 5414 5413 5413 5412 5412 5411 5411 5412 5413 5414 5413 5413 5413 5415 5419 5426 5429 5433
5472 5470 5465 5461 5460 5458 5453 5450 5445 5441 5438 5435 5430 5426 5421 5421 5419 5419 5420 5419 5418 5417 5416 5416 5415 5415 5414 5413 5413 5414 5415 5417 5418 5417 5416 5413 5410 5409 5408 5409 5414 5419 5423
5464 5461 5458 5455 5454 5451 5448 5443 5438 5435 5432 5428 5424 5421 5418 5414 5415 5416 5418 5419 5418 5417 5415 5415 5415 5415 5415 5417 5417 5418 5420 5421 5421 5422 5420 5418 5413 5409 5408 5407 5411 5412 5415